Flag for United Kingdom Weather past 2 weeks in York, England, United Kingdom

Now
54 °F

Light rain. Passing clouds.


Feels Like: 52 °F
Forecast: 46 / 58 °F
Wind: 7 mph from Southwest

Location: Linton-On-Ouse

Current Time: Oct 24, 2014 at 8:52:32 AM

Latest Report: Oct 24, 2014 at 7:50 AM


Visibility: N/A

Pressure: 29.86 "Hg

Humidity: 82%

Dew point: 48 °F

Location of YorkLocation

Historic Weather in York — Graph

°F

York temperature yesterday

Maximum temperature yesterday: 63 °F (at 2:50 PM)
Minimum temperature yesterday: 52 °F (at 12:50 AM)
Average temperature yesterday: 57 °F

Past Weeks' High & Low Weather Summary

 TemperatureHumidityPressure
High66 °F (Oct 17, 1:50 PM)100% (Oct 11, 3:50 AM)30.15 "Hg (Oct 11, 3:50 AM)
Low36 °F (Oct 12, 3:50 AM)47% (Oct 21, 3:50 PM)29.24 "Hg (Oct 9, 7:50 AM)
Average53 °F84%29.74 "Hg
* Reported Oct 9 7:50 AM — Oct 24 7:50 AM, York, Weather by CustomWeather, © 2014

Note: Actual official high and low records may vary slightly from our data, if they occured in-between our weather recording intervals... More about our weather records

Advertising

York weather history for previous 24 hours

 ConditionsComfort  
Time TempWeatherWind HumidityBarometerVisibility
7:50 AM
Oct 24
54 °FLight rain. Passing clouds.7 mph82%29.86 "HgN/A
6:50 AM52 °FPartly cloudy.2 mph94%29.83 "HgN/A
5:50 AM54 °FPassing clouds.5 mph88%29.83 "HgN/A
4:50 AM55 °FPassing clouds.6 mph88%29.83 "HgN/A
3:50 AM55 °FPassing clouds.5 mph88%29.83 "HgN/A
2:50 AM57 °FPassing clouds.5 mph82%29.83 "HgN/A
1:50 AM57 °FPassing clouds.7 mph88%29.83 "HgN/A
12:50 AM59 °FOvercast.12 mph77%29.86 "HgN/A
11:50 PM
Oct 23
59 °FPassing clouds.8 mph77%29.86 "HgN/A
10:50 PM59 °FPassing clouds.5 mph82%29.86 "HgN/A
9:50 PM57 °FPassing clouds.5 mph88%29.86 "HgN/A
8:50 PM59 °FPartly cloudy.9 mph82%29.86 "HgN/A
7:50 PM59 °FPartly cloudy.8 mph88%29.86 "HgN/A
6:50 PM61 °FPartly cloudy.15 mph77%29.86 "HgN/A
5:50 PM61 °FPartly sunny.12 mph77%29.86 "HgN/A
4:50 PM61 °FPartly sunny.15 mph77%29.86 "HgN/A
3:50 PM61 °FPartly sunny.10 mph77%29.86 "HgN/A
2:50 PM63 °FPartly sunny.10 mph73%29.89 "HgN/A
1:50 PM61 °FPartly sunny.9 mph72%29.92 "HgN/A
12:50 PM59 °FBroken clouds.13 mph77%29.92 "HgN/A
11:50 AM57 °FPartly sunny.10 mph77%29.95 "HgN/A
10:50 AM57 °FScattered clouds.10 mph77%29.95 "HgN/A
9:50 AM55 °FScattered clouds.7 mph77%29.98 "HgN/A
8:50 AM54 °FPartly sunny.13 mph77%29.98 "HgN/A
Weather by CustomWeather, © 2014

See weather overviewHow to use our weather pages